Location: Nitra
(0.0000°N, 18.0833°E)
Time: 16:41:13
(UTC+02:00)

A-11 Canister half - Pass Details

Date: 30 March 2023
Orbit: 1513 x 1686 km, 47.2° (Epoch: 02 June)

Event Time Altitude Azimuth Distance (km) Brightness Sun altitude
Rises 18:56:51 0° 241° (WSW) 4,672 12.6 -1.2°
Reaches altitude 10° 19:00:15 10° 250° (WSW) 3,704 12.4 -2.0°
Maximum altitude 19:08:24 34° 311° (NW) 2,364 10.7 -4.0°
Drops below altitude 10° 19:16:50 10° 13° (NNE) 3,807 11.0 -6.2°
Sets 19:20:25 0° 22° (NNE) 4,818 11.4 -7.0°
